[Iaude] MPEC H13: 2024 GO6 [a=1.22,e=0.27,i=4.5,H=24.2]

mpec at cfa.harvard.edu mpec at cfa.harvard.edu
Wed Apr 17 03:47:36 EDT 2024


M.P.E.C. 2024-H13                                Issued 2024 April 17, 07:46 UT

     The Minor Planet Electronic Circulars contain information on unusual
         minor planets, routine data on comets and natural satellites,
         and occasional editorial announcements.  They are published
    on behalf of Division F of the International Astronomical Union by the
          Minor Planet Center, Smithsonian Astrophysical Observatory,
                          Cambridge, MA 02138, U.S.A.
			  
             Prepared using the Tamkin Foundation Computer Network

                              MPC at CFA.HARVARD.EDU
            URL https://www.minorplanetcenter.net/    ISSN 1523-6714

                                    2024 GO6                                    


Observations:
     K24G06O*1C2024 04 15.26822414 03 03.323+40 25 26.40         20.48GVEH013G96
     K24G06O 1C2024 04 15.27340014 03 02.862+40 24 58.64         21.28GVEH013G96
     K24G06O 1C2024 04 15.27854714 03 02.372+40 24 31.43         20.90GVEH013G96
     K24G06O 1C2024 04 15.28369914 03 01.814+40 24 04.72         20.73GVEH013G96
     K24G06O KC2024 04 15.30543514 02 59.658+40 22 08.47         20.71GVEH013I52
     K24G06O KB2024 04 15.30590 14 02 57.953+40 21 57.24         20.7 RZEH013H36
     K24G06O KC2024 04 15.30903614 02 59.269+40 21 49.36         21.05GVEH013I52
     K24G06O KC2024 04 15.31264014 02 58.906+40 21 30.24         21.00GVEH013I52
     K24G06O KC2024 04 15.31624214 02 58.585+40 21 10.84         20.80GVEH013I52
     K24G06O KB2024 04 15.32240 14 02 56.383+40 20 27.17         20.5 RZEH013H36
     K24G06O KB2024 04 15.33850 14 02 54.804+40 18 59.80         20.7 RZEH013H36
     K24G06O IC2024 04 15.89127714 02 26.03 +39 29 54.9          21.1 GVEH013L01
     K24G06O IC2024 04 15.89676314 02 25.56 +39 29 27.7          21.3 GVEH013L01
     K24G06O 1C2024 04 15.95917 14 02 20.16 +39 23 58.6          21.4 VXEH013033
     K24G06O 1C2024 04 15.96096 14 02 20.05 +39 23 49.1          21.1 VXEH013033
     K24G06O 1C2024 04 15.96456 14 02 19.74 +39 23 30.8          20.8 VXEH013033
     K24G06O 1C2024 04 16.08694 14 02 09.29 +39 12 47.1          21.6 VXEH013033
     K24G06O 1C2024 04 16.08873 14 02 09.14 +39 12 37.6          21.1 VXEH013033
     K24G06O 1C2024 04 16.09052 14 02 08.94 +39 12 28.8          21.3 VXEH013033
     K24G06O 1C2024 04 16.09232 14 02 08.80 +39 12 19.7          21.1 VXEH013033
     K24G06O KC2024 04 16.23345214 02 06.770+39 00 36.10               VEH013I52
     K24G06O KC2024 04 16.23766214 02 06.470+39 00 14.80               VEH013I52
     K24G06O KC2024 04 16.24186614 02 06.010+38 59 53.60         21.80GVEH013I52
     K24G06O KC2024 04 16.24606214 02 05.760+38 59 33.50         21.51GVEH013I52
     K24G06O  C2024 04 17.28300514 01 07.468+37 32 45.80         21.0 GVEH013H01
     K24G06O  C2024 04 17.28837314 01 07.004+37 32 19.73         21.6 GVEH013H01
     K24G06O  C2024 04 17.29976614 01 06.014+37 31 24.14         21.9 GVEH013H01
     K24G06O  C2024 04 17.30460514 01 05.582+37 31 00.51         21.1 GVEH013H01

Observer details:
033 Karl Schwarzschild Observatory, Tautenburg.  Observers S. Melnikov, C.
    Hogner, F. Ludwig, M. Hartmann, B. Stecklum.  Measurer B. Stecklum.
    1.34-m f/3 Schmidt + CCD.
G96 Mt. Lemmon Survey.  Observer G. J. Leonard.  Measurers T. Beuden, V. F.
    Carvajal, D. Fay, J. B. Fazekas, D. C. Fuls, A. R. Gibbs, A. D. Grauer, H.
    Groeller, J. K. Hogan, R. A. Kowalski, S. M. Larson, G. J. Leonard, D.
    Rankin, R. L. Seaman, F. C. Shelly, K. W. Wierzchos.  1.5-m reflector +
    10K CCD.
H01 Magdalena Ridge Observatory, Socorro.  Observers W. H. Ryan, E. V. Ryan.
    Measurer W. H. Ryan.  2.4-m f/8.9 Ritchey-Chretien + CCD.
H36 Sandlot Observatory, Scranton.  Observer G. Hug.  0.56-m f/4.8 reflector +
    CMO.
I52 Steward Observatory, Mt. Lemmon Station.  Observers J. B. Fazekas, T.
    Beuden.  Measurers T. Beuden, V. F. Carvajal, D. Fay, J. B. Fazekas, D. C.
    Fuls, A. R. Gibbs, A. D. Grauer, H. Groeller, J. K. Hogan, R. A. Kowalski,
    S. M. Larson, G. J. Leonard, D. Rankin, R. L. Seaman, F. C. Shelly, K. W.
    Wierzchos.  1.0-m prime focus + CCD.
L01 Visnjan Observatory, Tican.  Observer K. Korlevic.  1.0-m f/2.9 reflector
    + CCD.

Orbital elements:
2024 GO6                                                 Earth MOID = 0.0561 AU
Epoch 2024 Mar. 31.0 TT = JDT 2460400.5                 MPC                     
M  37.64291              (2000.0)            P               Q                  
n   0.72713950     Peri.  350.17423     -0.60630905     -0.79341662             
a   1.2247785      Node   137.12281     +0.73485726     -0.58479200             
e   0.2687365      Incl.    4.52316     +0.30393117     -0.16884424             
P   1.36           H   24.25          G   0.15           U   8                  
Residuals in seconds of arc
240415 G96  0.6-  0.1+    240415 H36  0.5-  0.2+    240416 I52  0.2-  0.0
240415 G96  0.0   0.3-    240415 L01  0.0   0.5-    240416 I52  0.7+  0.2-
240415 G96  0.3+  0.3-    240415 L01  0.0   0.3+    240416 I52  0.3-  0.4-
240415 G96  0.2-  0.3+    240415 033  0.4+  0.9+    240416 I52  1.2+  0.5+
240415 I52  0.2+  0.1-    240415 033  1.0+  0.6+    240417 H01  0.0   0.0
240415 H36  0.7-  0.3+    240415 033  1.0+  1.0+    240417 H01  0.0   0.0
240415 I52  0.1-  0.0     240416 033  0.0   0.1-    240417 H01  0.0   0.0
240415 I52  0.1-  0.2+    240416 033  0.1-  0.1-    240417 H01  0.2-  0.0
240415 I52  0.4+  0.0     240416 033  0.7-  0.6+
240415 H36  0.2-  0.2-    240416 033  0.7-  1.1+

Ephemeris:
2024 GO6                 a,e,i = 1.22, 0.27, 5                   q = 0.8956
Date    TT    R. A. (2000) Decl.     Delta      r    Elong.  Phase     V
2024 03 18    01 14 24.8 +57 10 10   0.06730 0.9639    60.5   116.0    22.9
...
2024 04 02    14 40 53.3 +68 50 07   0.06893 1.0180   103.6    72.6    21.0
...
2024 04 10    14 10 16.0 +49 26 50   0.08773 1.0502   121.4    54.5    21.1
...
2024 04 16    14 02 17.1 +39 20 46   0.1065  1.0753   130.2    45.5    21.3
2024 04 17    14 01 21.4 +37 56 02   0.1099  1.0796   131.4    44.2    21.3
2024 04 18    14 00 30.5 +36 35 07   0.1134  1.0838   132.5    43.1    21.4
...
2024 04 24    13 56 42.8 +29 36 30   0.1358  1.1096   137.5    37.8    21.7
...
2024 05 02    13 54 07.0 +22 26 01   0.1696  1.1442   140.8    33.9    22.1
...
2024 05 17    13 55 11.1 +12 36 46   0.2454  1.2086   139.6    32.8    23.0

A. U. Tomatic                (C) Copyright 2024 MPC           M.P.E.C. 2024-H13





More information about the Iaude mailing list